#timestamp,LO_Frequency,Hit,StdDev 
1645534815.8,286046999.3,N
1645534835.7,286047002.3,N
1645534855.5,286046999.5,N
1645534875.3,286046995.4,N
1645534895.2,286046994.3,N
1645534915.0,286046992.3,N
1645534915.9,286046992.3,N
1645534935.8,286046990.2,N
1645534955.6,286046990.6,N
1645534975.4,286046991.7,N
1645534995.3,286046993.5,N
1645535015.1,286046993.8,N
1645535035.8,286046994.8,N
1645535055.7,286046992.8,N
1645535075.5,286046991.3,N
1645535095.4,286046993.8,N
1645535115.2,286047001.0,N
1645535135.0,286047001.6,N
1645535135.9,286047001.6,N
1645535155.8,286047004.9,N
1645535175.6,286047009.1,N
1645535195.4,286047012.3,N
1645535215.3,286047014.4,N
1645535235.1,286047016.3,N
1645535255.9,286047017.0,N
1645535275.7,286047017.6,N
1645535295.5,286047019.7,N
1645535315.4,286047016.3,N
1645535335.2,286047017.2,N
1645535355.0,286047013.3,N
1645535356.0,286047013.3,N
1645535375.8,286047008.0,N
1645535395.6,286047006.4,N
1645535415.5,286047005.5,N
1645535435.3,286047003.9,N
1645535455.1,286047004.2,N
1645535475.9,286047005.9,N
1645535495.7,286047008.4,N
1645535515.6,286047005.5,N
1645535535.4,286047006.8,N
1645535555.2,286047003.2,N
1645535575.1,286047008.4,N
1645535576.0,286047008.4,N
1645535595.8,286047005.6,N
1645535615.6,286047006.8,N
1645535635.5,286047011.9,N
1645535655.3,286047008.5,N
1645535675.2,286047005.0,N
1645535695.9,286047007.0,N
1645535715.7,286047015.0,Y
1645535735.6,286047008.9,P
1645535755.4,286047010.9,P
1645535775.2,286047009.0,P
1645535795.1,286047006.1,Y
1645535796.0,286047006.1,P
1645535815.8,286046999.2,N
1645535835.7,286046997.9,N
1645535855.5,286046998.7,N
1645535875.3,286046994.6,N
1645535895.2,286046996.1,N
1645535915.0,286046998.2,N
1645535915.9,286046998.2,N
1645535935.7,286047003.7,N
1645535955.6,286046996.2,N
1645535975.4,286046991.1,N
1645535995.3,286046986.6,N
1645536015.1,286046985.8,N
1645536016.0,286046985.8,N
1645536035.8,286046994.3,N
1645536055.7,286046996.6,N
1645536075.5,286046994.7,N
1645536095.3,286046998.4,N
1645536115.2,286047003.0,N
1645536135.0,286047003.6,N
1645536135.9,286047003.6,N
1645536155.8,286047004.8,N
1645536175.6,286047004.9,N
1645536195.4,286047001.5,N
1645536215.3,286046998.6,N
1645536235.1,286046996.6,N
1645536255.8,286046997.6,N
1645536275.7,286046994.3,N
1645536295.5,286046995.2,N
1645536315.4,286047002.6,N
1645536335.2,286046999.6,N
1645536355.0,286046994.0,N
1645536355.9,286046994.0,N
1645536375.8,286046993.7,N
1645536395.6,286046996.7,N
1645536415.5,286047000.7,N
1645536435.3,286047001.2,N
1645536455.1,286047000.7,N
1645536475.9,286047000.3,N
1645536495.7,286047003.0,N
1645536515.5,286047002.1,N
1645536535.4,286047001.9,N
1645536555.2,286047005.6,N
1645536575.0,286046999.7,N
1645536576.0,286046999.7,N
1645536595.8,286047006.0,N
1645536615.6,286047004.8,N
1645536635.5,286047007.6,N
1645536655.3,286047003.7,N
1645536675.1,286047001.1,N
1645536695.9,286047003.5,N
1645536715.7,286047008.9,N
1645536735.6,286047010.9,N
1645536755.4,286047013.4,Y
1645536775.2,286047010.8,P
1645536795.1,286047007.6,N
1645536796.0,286047007.6,N
1645536815.8,286047003.8,N
1645536835.6,286047005.3,N
1645536855.5,286047012.2,Y
1645536875.3,286047006.7,P
1645536895.2,286047002.9,P
1645536915.9,286047000.9,N
1645536935.7,286047003.9,N
1645536955.6,286046999.2,N
1645536975.4,286046992.0,Y
1645536995.2,286046993.6,P
1645537015.1,286046995.6,N
1645537016.0,286046995.6,N
1645537035.8,286046997.9,N
1645537055.7,286046993.7,N
1645537075.5,286046989.9,Y
1645537095.3,286046994.6,P
1645537115.2,286046995.3,P
1645537135.0,286046995.1,P
1645537135.9,286046995.1,Y
1645537155.8,286046998.6,P
1645537175.6,286046998.6,N
1645537195.4,286047005.3,P
1645537215.3,286047010.4,N
1645537235.1,286047012.8,N
1645537255.8,286047017.3,N
1645537275.7,286047012.7,N
1645537295.5,286047015.9,N
1645537315.4,286047016.7,N
1645537335.2,286047017.0,N
1645537355.0,286047016.8,N
1645537355.9,286047016.8,N
1645537375.8,286047010.3,N
1645537395.6,286047013.4,N
1645537415.4,286047014.2,N
1645537435.3,286047017.3,N
1645537455.1,286047017.6,N
1645537475.9,286047014.2,N
1645537495.7,286047011.5,N
1645537515.5,286047015.8,N
1645537535.4,286047021.8,Y
1645537555.2,286047006.5,P
1645537575.0,286047006.1,N
1645537575.9,286047006.1,N
1645537595.8,286047007.9,Y
1645537615.6,286047005.5,P
1645537635.5,286047004.3,P
1645537655.3,286047002.0,N
1645537675.1,286047001.5,N
1645537695.9,286047004.9,N
1645537715.7,286047005.9,N
1645537735.5,286047004.8,N
1645537755.4,286047008.2,Y
1645537775.2,286047004.2,P
1645537795.1,286047004.8,P
1645537796.0,286047004.8,P
1645537815.8,286047005.4,Y
1645537835.6,286046993.0,P
1645537855.5,286046987.1,N
1645537875.3,286046981.1,N
1645537895.2,286046975.6,N
1645537915.9,286046968.0,Y
1645537935.7,286046982.0,P
1645537955.6,286046983.4,P
1645537975.4,286046986.2,P
1645537995.2,286046986.7,Y
1645538015.1,286047002.8,P
1645538016.0,286047002.8,N
1645538035.8,286047001.7,N
1645538055.7,286047001.1,N
1645538075.5,286046995.0,N
1645538095.3,286046998.2,N
1645538115.2,286047005.0,N
1645538135.0,286047004.3,N
1645538135.9,286047004.3,N
1645538155.8,286047001.3,N
1645538175.6,286047000.3,N
1645538195.4,286047001.4,N
1645538215.3,286047003.2,N
1645538235.1,286047008.6,N
1645538255.8,286047010.6,N
1645538275.7,286047011.1,N
1645538295.5,286047013.6,N
1645538315.4,286047012.1,N
1645538335.2,286047012.0,N
1645538355.0,286047011.7,N
1645538355.9,286047011.7,N
1645538375.8,286047011.2,N
1645538395.6,286047015.3,N
